AirNav   Pilot Hours Calculator
 
 487 users online  

1LA1 Triche Field Airport
Hahnville, Louisiana, USA

GOING TO HAHNVILLE?


FAA INFORMATION EFFECTIVE 07 OCTOBER 2021

Location

FAA Identifier: 1LA1
Lat/Long: 29-59-00.7340N 090-26-05.2970W
29-59.012233N 090-26.088283W
29.9835372,-90.4348047
(estimated)
Elevation: 10 ft. / 3 m (estimated)
Variation: 03E (1985)
From city: 2 miles NW of HAHNVILLE, LA
Time zone: UTC -5 (UTC -6 during Standard Time)
Zip code: 70079

Airport Operations

Airport use: Private use. Permission required prior to landing
Activation date: 11/1975
Control tower: no
ARTCC: HOUSTON CENTER
FSS: DE RIDDER FLIGHT SERVICE STATION
Attendance: UNATNDD
Wind indicator: yes
Segmented circle: no

Airport Communications

WX ASOS at MSY (9 nm E): PHONE (504)471-4486
WX AWOS-3PT at APS (10 nm NW): 125.45 (985-536-1009)

Nearby radio navigation aids

VOR radial/distance  VOR name  Freq  Var
RQRr126/10.1RESERVE VOR/DME110.8002E
HRVr288/23.8HARVEY VORTAC114.1002E
TBDr045/28.1TIBBY VOR/DME112.0002E

Airport Services

Runway Information

Runway 2/20

Dimensions: 4000 x 100 ft. / 1219 x 30 m
Surface: turf
RUNWAY 2  RUNWAY 20
Traffic pattern: rightleft
Obstructions: none20 ft. pline, 500 ft. from runway

Airport Ownership and Management from official FAA records

Ownership: Privately-owned
Owner: PORT OF SOUTH LOUISIANA
171 BELLE TERRE BLVD, P.O. BOX 909
LAPLACE, LA 70069
Phone 985-652-9278
Manager: LISA BRAUD
171 BELLE TERRE BLVD, P.O. BOX 909
LAPLACE, LA 70069
Phone 985-652-9278

Airport Operational Statistics

Aircraft based on the field: 3
Single engine airplanes: 3
    

Additional Remarks

FOUR LIGHTING POLES APRXLY 60 FT TALL LOCATED 20 FT FROM WEST SIDE OF RUNWAY NEAR SOUTH END.
FOR CD CTC NEW ORLEANS APCH AT 504-471-4350.

Instrument Procedures

There are no published instrument procedures at 1LA1.

Some nearby airports with instrument procedures:

KMSY - Louis Armstrong New Orleans International Airport (9 nm E)
KAPS - Port of South Louisiana Executive Regional Airport (10 nm NW)
KNEW - Lakefront Airport (21 nm E)
KNBG - New Orleans Naval Air Station Joint Reserve Base//Alvin Callender Field (23 nm SE)
L83 - Thibodaux Municipal Airport (25 nm SW)
 
Loc | Ops | Rwys | IFR | FBO | Links
Com | Nav | Svcs | Stats | Notes
Area around 1LA1 (Triche Field Airport)
 
Road maps at: MapQuest Bing Google
 
Aerial photo
No photo
 
Sectional chart

 
Airport distance calculator
Flying to Triche Field Airport? Find the distance to fly.

From to 1LA1

Sunrise and sunset
Times for 16-Oct-2021
 Local
(UTC-5)
 Zulu
(UTC)
Morning civil twilight06:4111:41
Sunrise07:0512:05
Sunset18:2923:29
Evening civil twilight18:5423:54

Current date and time
Zulu (UTC)  16-Oct-2021 06:33:10
Local (UTC-5)  16-Oct-2021 01:33:10
 
METAR
KMSY 
10nm E 
160553Z 18005KT 10SM FEW010 FEW030 26/22 A2998 RMK AO2 SLP154 6//// T02610222 10267 20256 403110222 51006 $
KAPS 
10nm NW 
160615Z AUTO 26004KT 10SM SCT070 SCT085 24/23 A2998 RMK AO2 T02410234
K7N0 
18nm E 
160556Z AUTO 24005KT 10SM CLR 26/24 A2999 RMK AO2 SLP155 T02610244 10294 20261 403220250 51006
TAF
KMSY 
10nm E 
160520Z 1606/1712 24005KT P6SM FEW020 FEW110 FM160800 29011G22KT P6SM BKN110 FM160900 34015G27KT P6SM BKN020 FM161200 35016G28KT P6SM BKN070 FM170200 02015G27KT P6SM FEW250
NOTAMs
Click for the latest NOTAMs
NOTAMs are issued by the DoD/FAA and will open in a separate window not controlled by AirNav.

 

 
 

Would you like to see your business listed on this page?

 If your business provides an interesting product or service to pilots, flight crews, aircraft, or users of the Triche Field Airport, you should consider listing it here.  To start the listing process, click on the button below
 
Add a business
 

Other Pages about Triche Field Airport

Update a link
 
Copyright © AirNav, LLC. All rights reserved. Privacy Policy  Contact